Regional Weather Roundup
Issued by NWS

Home | Current Version | Previous Version | Graphics & Text | Print | Product List | Glossary On
Versions: 1 2 3 4 5 6 7 8 9 10 11 12 13 14 15 16 17 18 19 20 21 22 23 24 25 26 27 28 29 30 31 32 33 34 35 36 37 38 39 40 41 42 43 44 45 46 47 48 49 50
000
ASUS43 KLSX 270210
RWRMO

WEATHER SUMMARY FOR MISSOURI
NATIONAL WEATHER SERVICE SPRINGFIELD MO
900 PM CDT WED APR 26 2017

NOTE: "FAIR" INDICATES FEW OR NO CLOUDS BELOW 12,000 FEET WITH NO
       SIGNIFICANT WEATHER AND/OR OBSTRUCTIONS TO VISIBILITY.
       CURRENT SKY AND/OR WEATHER CONDITIONS ARE NOT AVAILABLE FOR
       CHILLICOTHE AND FARMINGTON.

MOZ001>031-035>038-043-044-053-054-270300-
...NORTHERN AND WESTERN MISSOURI...

CITY           SKY/WX    TMP DP  RH WIND       PRES   REMARKS
KANSAS CTY INT CLOUDY    44  35  70 NW12      29.63R
KANSAS C DTWN  CLOUDY    47  37  68 NW9       29.64R
LEE`S SUMMIT   CLOUDY    46  39  76 NW10      29.63R
ST JOSEPH      CLOUDY    44  36  73 NW14      29.65R
CHILLICOTHE      N/A     46  39  76 VRB7      29.60R
KIRKSVILLE     CLOUDY    46  44  93 NW10G20   29.54R

$$
MOZ066>068-077>081-088>096-101>105-270300-
...SOUTHWEST MISSOURI...

CITY           SKY/WX    TMP DP  RH WIND       PRES   REMARKS
SPRINGFIELD    CLOUDY    45  43  93 NW14G22   29.60R
JOPLIN         CLOUDY    47  45  93 W9        29.67R
BRANSON        CLOUDY    45  45 100 NW12G17   29.61R

$$
MOZ032>034-039>042-045>050-055>058-069>072-270300-
...CENTRAL MISSOURI...

CITY           SKY/WX    TMP DP  RH WIND       PRES   REMARKS
COLUMBIA       LGT RAIN  47  46  97 W9        29.54R
JEFFERSON CITY LGT RAIN  49  46  90 W9        29.54R FOG
ROLLA          RAIN      46  46 100 W14       29.52R FOG
SEDALIA        LGT RAIN  46  46 100 NW10      29.60R
WHITEMAN AFB   LGT RAIN  44  44 100 W9        29.60R
OSAGE BEACH    LGT RAIN  45  45 100 VRB7      29.59R FOG

$$
MOZ051-052-059>065-270300-
...EAST CENTRAL MISSOURI...

CITY           SKY/WX    TMP DP  RH WIND       PRES   REMARKS
ST LOUIS INTL  LGT RAIN  62  59  90 S9        29.46R
SPIRIT OF STL  LGT RAIN  61  60  97 S7        29.43F
ST CHARLES     LGT RAIN  61  61 100 SE8       29.44R

$$
MOZ072>076-082>087-097>100-106>115-270300-
...SOUTH CENTRAL AND SOUTHEAST MISSOURI...

CITY           SKY/WX    TMP DP  RH WIND       PRES   REMARKS
CAPE GIRARDEAU LGT RAIN  58  55  90 SE9       29.53R
FARMINGTON     RAIN      58  57  97 SE15      29.44F
POPLAR BLUFF   HVY RAIN  60  59  96 SE9       29.52S FOG
WEST PLAINS    LGT RAIN  49  47  93 W12       29.53R FOG

$$




USA.gov is the U.S. government's official web portal to all federal, state and local government web resources and services.